Weather History for KLSE - March, 2014

Change the Weather History Date:

Wednesday, March 12, 2014

  Actual Average Record
Temperature  
Mean Temperature 25 °F 33 °F  
Max Temperature 35 °F 42 °F 74 °F (1990)
Min Temperature 15 °F 24 °F -7 °F (1956)
Degree Days  
Heating Degree Days 40 32  
Month to date heating degree days 543 417  
Since 1 July heating degree days 6733 5926  
Cooling Degree Days 0 0  
Month to date cooling degree days 0 0  
Year to date cooling degree days 0 0  
Moisture  
Dew Point 15 °F    
Average Humidity 64    
Maximum Humidity 81    
Minimum Humidity 46    
Precipitation  
Precipitation 0.01 in 0.06 in 0.70 in (2001)
Month to date precipitation 0.45 0.68  
Year to date precipitation 2.81 2.85  
Snow  
Snow 0.10 in 0.30 in 7.50 in (2001)
Month to date snowfall 4.3 3.6  
Since 1 July snowfall 45.2 38.1  
Snow Depth 10.00 in    
Sea Level Pressure  
Sea Level Pressure 30.06 in    
Wind  
Wind Speed 11 mph (NNW)    
Max Wind Speed 22 mph    
Max Gust Speed 27 mph    
Visibility 8 miles    
Events Snow    
T = Trace of Precipitation, MM = Missing Value Source: NWS Daily Summary

Daily Weather History Graph

Daily Weather History Graph

Search for Another Location

Airport or City:

Trip Planner

Search our weather history database for the weather conditions in past years. The results will help you decide how hot, cold, wet, or windy it might be!

Date:

Astronomy

Mar. 12, 2014 Rise Set
Actual Time 7:22 AM CDT 7:07 PM CDT
Civil Twilight 6:53 AM CDT 7:36 PM CDT
Nautical Twilight 6:20 AM CDT 8:09 PM CDT
Astronomical Twilight 5:46 AM CDT 8:43 PM CDT
Moon 3:32 PM CDT (3/12) 5:00 AM CDT (3/12)
Length of Visible Light 12h 42m
Length of Day
11h 44m
Waxing Gibbous, 85% of the Moon is Illuminated
Mar 12
Waxing Gibbous
Mar 16
Full
Mar 23
Last Quarter
Mar 30
New
Apr 7
First Quarter

Hourly Weather History & Observations

Time (CDT) Temp. Windchill Dew Point Humidity Pressure Visibility Wind Dir Wind Speed Gust Speed Precip Events Conditions
12:53 AM 35.1 °F 26.4 °F 21.0 °F 57% 29.93 in 10.0 mi NNW 12.7 mph - N/A   Overcast
1:53 AM 34.0 °F 24.2 °F 21.0 °F 59% 29.94 in 10.0 mi NNW 15.0 mph - N/A   Overcast
2:53 AM 33.1 °F 23.0 °F 19.9 °F 59% 29.94 in 10.0 mi NNW 15.0 mph - N/A   Overcast
3:53 AM 30.9 °F 20.7 °F 19.0 °F 61% 29.94 in 10.0 mi NNW 13.8 mph - N/A   Overcast
4:53 AM 28.9 °F 17.3 °F 18.0 °F 64% 29.95 in 10.0 mi NW 16.1 mph - N/A   Overcast
5:53 AM 28.9 °F 18.2 °F 17.1 °F 61% 29.99 in 10.0 mi NW 13.8 mph - N/A   Overcast
6:53 AM 28.0 °F 17.5 °F 17.1 °F 63% 30.01 in 10.0 mi NNW 12.7 mph - N/A   Overcast
7:53 AM 27.0 °F 16.1 °F 16.0 °F 63% 30.02 in 10.0 mi NNW 12.7 mph - N/A   Overcast
8:21 AM 27.0 °F 15.6 °F 17.1 °F 66% 29.99 in 10.0 mi NNW 13.8 mph - N/A   Overcast
8:53 AM 27.0 °F 16.1 °F 19.9 °F 75% 30.05 in 2.5 mi North 12.7 mph - 0.00 in Snow Light Snow
9:05 AM 26.1 °F 17.6 °F 19.9 °F 78% 30.02 in 3.0 mi North 8.1 mph - 0.00 in Snow Light Snow
9:09 AM 26.1 °F 16.8 °F 21.0 °F 81% 30.02 in 1.8 mi North 9.2 mph - 0.00 in Snow Light Snow
9:16 AM 25.0 °F 13.1 °F 21.0 °F 85% 30.03 in 0.8 mi North 13.8 mph - 0.00 in Snow Light Snow
9:35 AM 25.0 °F 14.8 °F 19.9 °F 81% 30.04 in 1.2 mi NNW 10.4 mph - 0.00 in Snow Light Snow
9:41 AM 25.0 °F 14.8 °F 19.9 °F 81% 30.04 in 3.0 mi NNW 10.4 mph - 0.00 in Snow Light Snow
9:53 AM 25.0 °F 13.1 °F 19.0 °F 78% 30.08 in 7.0 mi NNW 13.8 mph - 0.01 in Snow Light Snow
10:00 AM 26.1 °F 14.5 °F 18.0 °F 71% 30.05 in 9.0 mi NNW 13.8 mph - 0.00 in   Overcast
10:53 AM 26.1 °F 14.5 °F 12.0 °F 55% 30.11 in 10.0 mi NNW 13.8 mph - 0.00 in   Overcast
11:53 AM 27.0 °F 15.6 °F 10.0 °F 49% 30.10 in 10.0 mi North 13.8 mph - N/A   Clear
12:53 PM 28.0 °F 16.1 °F 12.0 °F 51% 30.11 in 10.0 mi North 16.1 mph - N/A   Clear
1:53 PM 30.0 °F 20.0 °F 12.9 °F 49% 30.09 in 10.0 mi NNW 12.7 mph - N/A   Scattered Clouds
2:53 PM 28.0 °F 17.5 °F 10.9 °F 49% 30.09 in 10.0 mi NNW 12.7 mph - N/A   Partly Cloudy
3:53 PM 28.9 °F 18.2 °F 12.0 °F 49% 30.11 in 10.0 mi NW 13.8 mph - N/A   Clear
4:53 PM 28.9 °F 19.2 °F 10.0 °F 45% 30.11 in - North 11.5 mph - N/A   Clear
5:53 PM 28.0 °F 18.6 °F 10.9 °F 49% 30.12 in 10.0 mi North 10.4 mph - N/A   Clear
6:53 PM 26.1 °F 18.4 °F 9.0 °F 49% 30.13 in - North 6.9 mph - N/A   Clear
7:53 PM 23.0 °F 15.8 °F 9.0 °F 55% 30.15 in 10.0 mi NNW 5.8 mph - N/A   Clear
8:53 PM 21.9 °F 17.2 °F 8.1 °F 55% 30.16 in - North 3.5 mph - N/A   Clear
9:53 PM 17.1 °F 11.7 °F 7.0 °F 65% 30.17 in - WNW 3.5 mph - N/A   Clear
10:53 PM 19.0 °F - 8.1 °F 62% 30.16 in - Calm Calm - N/A   Clear
11:53 PM 17.1 °F 11.7 °F 10.0 °F 74% 30.14 in - ESE 3.5 mph - N/A   Clear